Zurück zum Katalog

FENGYUN 1C DEB

AktivSSO
NORAD 30740·DEBRIS·🇨🇳 China

Gestartet May 10, 1999 von Taiyuan Satellite Launch Center

Loading…

Nächste Überflüge (nächste 24 Stunden)

TLE

AktuellSource: Space-Track

Epoche: Sep 13, 2026, 07:03 UTC

1 30740U 99025ATA 26256.29429919  .00004926  00000-0  11077-2 0  9994
2 30740  98.6987  17.1183 0027805  19.6419 340.5843 14.56708862 16311

Verfolge FENGYUN 1C DEB in Echtzeit mit AllMySat

Download on the App Store